Presure
197 198 199 194 193 181 176 195 198 112 163 176 177 195 186 177 185 184 186 172 175 175 182 182 166 146 153 161 151 161 152 184
200 200 204 213 193 199 192 192 193 107 151 194 189 185 180 184 185 175 163 167 171 183 134 184 139 124 156 172 192 202 204 214
215 206 197 193 189 172 191 192 99 103 166 174 180 184 178 163 165 175 185 176 186 137 175 183 147 204 206 206 209 210 208 206
192 191 191 193 192 193 188 184 114 155 182 179 180 142 161 154 174 183 188 193 195 200 203 209 207 206 205 204 208 212 210 216
196 199 196 187 181 153 183 183 189 188 179 177 180 115 175 186 190 193 193 162 206 207 208 205 204 207 207 222 215 227 205 215
180 175 171 180 170 168 183 174 178 163 165 177 111 142 195 197 193 139 203 202 211 210 195 209 198 203 188 217 236 234 249 230
168 167 179 178 172 182 179 180 176 180 110 124 165 194 164 200 204 208 206 195 201 200 206 225 234 212 207 244 241 167 255 265
180 183 178 174 175 179 172 178 146 169 162 152 153 194 199 205 201 210 216 214 221 215 220 221 228 231 238 241 261 264 268 266
128 183 175 174 177 118 180 178 106 200 137 150 202 197 194 203 202 221 220 227 219 145 224 224 235 240 254 271 287 291 307 314
182 179 179 181 172 178 174 177 197 193 193 193 204 209 199 207 214 216 224 225 226 228 230 246 253 267 285 308 324 333 333 330
173 180 170 172 178 173 134 200 194 192 196 207 206 208 203 215 213 211 228 225 228 238 257 260 273 329 323 328 342 344 337 306
178 173 171 180 184 128 195 194 206 202 203 204 213 192 216 214 214 227 224 230 250 258 276 323 339 339 343 338 333 326 418 410
177 179 106 184 197 192 197 203 202 202 122 125 158 223 216 213 231 223 250 259 274 296 350 350 339 293 297 425 411 406 434 422
181 194 200 190 194 199 201 202 170 120 146 168 222 214 218 232 242 255 273 284 342 352 311 285 323 426 410 407 401 411 409 407
198 189 155 198 198 196 202 204 204 204 211 214 215 236 247 272 291 313 327 351 271 282 303 438 432 411 393 401 400 394 385 384
194 193 192 192 197 201 201 208 208 216 210 245 253 255 286 324 322 323 282 282 292 411 427 414 398 388 398 391 384 377 369 364
192 191 193 199 202 205 210 206 223 213 252 258 264 293 310 316 259 285 278 383 435 420 405 401 389 390 386 380 371 364 361 357
188 191 202 200 211 210 221 216 239 259 312 270 310 320 256 284 281 359 449 427 408 398 402 394 386 379 374 370 362 357 346 343
195 203 212 206 213 220 194 249 281 293 286 300 267 278 282 329 450 434 417 409 403 395 383 373 367 364 362 362 360 357 353 352
Wind_Speed
44 42 43 43 43 44 47 47 48 38 47 54 58 56 57 55 60 63 65 59 63 62 68 70 63 44 53 55 48 54 50 71
49 47 43 38 43 43 45 46 51 33 56 52 55 58 59 62 63 62 58 63 66 73 39 72 42 41 59 70 84 90 92 90
39 38 40 42 45 51 49 48 33 35 56 57 59 60 60 57 59 69 74 70 80 45 73 80 57 92 93 95 96 94 93 95
36 39 42 42 44 47 49 51 40 54 55 59 61 47 57 55 70 79 83 85 88 89 90 90 90 92 93 94 97 97 96 98
36 37 38 41 45 48 51 53 55 57 60 64 69 43 73 83 85 87 88 62 91 91 89 90 92 97 98 93 99 98 98 101
37 43 48 48 54 59 59 62 63 65 70 75 43 48 82 84 85 43 93 95 95 94 90 97 93 100 82 100 102 104 107 106
49 53 52 55 60 61 65 68 69 75 36 44 65 83 69 91 93 95 95 90 97 99 99 103 106 96 96 112 110 72 113 115
50 52 54 59 61 65 67 74 46 63 69 57 60 90 92 94 95 98 99 98 100 100 103 107 109 109 116 116 123 117 115 112
46 56 58 62 64 47 77 78 40 84 52 58 92 96 96 98 100 105 105 109 107 62 112 112 121 124 131 133 129 125 114 114
59 62 65 69 67 76 76 84 88 92 94 97 98 98 96 103 108 110 117 118 121 122 121 131 133 137 137 133 124 119 117 115
63 68 65 70 78 76 59 89 93 95 98 99 101 104 104 111 111 110 123 121 124 129 135 137 139 122 125 120 114 111 110 103
70 71 72 83 88 55 89 93 93 97 101 103 110 94 119 115 116 123 123 127 132 134 136 126 117 114 112 111 111 104 61 61
75 80 43 86 85 92 95 97 98 101 59 62 79 122 120 118 130 124 134 135 138 137 114 112 109 108 109 68 66 63 50 51
82 83 82 88 91 95 98 101 85 59 76 92 124 121 125 132 132 135 138 136 120 113 111 113 108 72 70 65 61 51 47 46
80 86 64 91 96 99 105 109 111 113 119 122 124 131 135 139 136 128 120 117 108 110 113 72 66 65 65 56 50 47 46 44
86 90 93 97 103 109 112 118 118 123 118 130 131 132 131 119 117 117 109 111 113 82 70 68 67 65 56 52 50 47 45 45
89 94 98 104 110 115 118 116 125 121 135 129 128 126 116 115 108 111 110 94 69 67 67 65 64 60 55 52 47 47 45 44
93 99 109 110 117 117 122 121 131 131 123 121 118 114 108 111 113 105 67 66 66 66 61 59 58 58 54 54 51 49 46 44
101 110 115 113 118 122 101 132 127 120 117 115 112 112 114 118 72 68 65 62 60 58 58 59 60 61 58 56 54 52 49 48
Wind_Direction
297 296 292 291 293 287 294 297 299 307 299 298 302 304 303 304 304 302 300 298 300 299 298 295 288 284 289 283 278 285 279 281
296 297 303 307 300 303 300 298 301 306 301 305 304 304 303 303 303 300 297 295 297 298 284 296 282 273 290 293 296 297 297 294
303 308 307 302 299 297 304 305 302 306 299 299 301 301 300 298 301 299 302 301 301 297 298 297 287 297 296 295 294 293 292 291
310 308 305 305 305 305 303 302 306 299 300 299 298 308 303 302 299 302 302 301 299 297 296 296 296 296 294 292 291 289 287 285
303 300 301 309 307 303 304 302 303 302 301 302 304 316 305 304 302 300 299 305 296 296 295 294 293 291 291 291 289 287 286 282
310 304 302 307 303 303 308 305 308 304 308 308 309 308 301 300 300 301 299 301 296 295 298 292 295 293 291 286 292 286 290 282
299 303 307 308 310 309 309 309 308 307 301 289 301 304 309 302 300 298 297 300 298 297 295 296 300 294 295 299 293 295 291 290
308 309 306 304 306 310 308 307 295 301 305 300 304 305 304 302 302 299 299 300 299 298 298 300 297 297 297 296 297 292 290 287
308 307 302 303 307 309 309 311 300 306 306 305 306 304 305 303 302 308 306 307 302 306 301 300 301 300 298 297 294 292 287 285
307 306 305 305 308 310 312 310 308 307 307 307 306 307 305 306 309 310 309 307 306 304 303 303 301 301 297 294 291 289 288 287
302 304 305 310 310 311 310 307 307 307 306 307 306 307 307 309 309 307 307 306 305 304 304 303 301 294 293 292 293 292 291 289
305 308 311 308 308 311 306 304 308 307 308 308 309 304 309 307 307 306 307 306 305 305 302 299 298 297 297 297 296 294 293 290
306 307 317 306 307 305 306 309 309 308 315 314 307 308 308 307 306 306 304 303 303 300 302 302 301 302 300 300 298 296 291 287
304 305 307 305 306 307 309 309 309 314 306 307 308 308 308 305 304 304 302 302 304 304 303 304 303 305 303 301 299 297 293 289
307 304 310 308 308 308 310 311 310 310 310 310 309 306 306 303 300 302 304 306 304 304 303 306 304 303 302 299 296 294 293 290
308 309 309 310 311 312 311 310 310 308 309 307 307 307 305 306 305 305 306 304 304 306 306 305 303 301 300 297 294 292 289 289
309 309 310 312 311 310 309 310 307 308 308 307 308 305 305 308 308 306 307 306 307 306 305 304 303 301 299 294 290 289 288 286
309 310 312 311 309 308 307 309 308 309 307 308 307 308 309 308 308 308 310 309 308 307 305 303 302 300 298 294 292 289 287 284
311 312 309 309 309 309 312 309 309 308 308 309 309 309 310 310 312 311 309 309 309 308 307 307 305 302 299 296 292 287 283 280